Location: Palomar Mountain Lodge
(33.3110°N, 116.8495°W)
Time: 21:59:27
(UTC-08:00)

USA 215 - Pass Details

Date: 12 July 2018
Orbit: 1099 x 1108 km, 123.0° (Epoch: 07 December)

Event Time Altitude Azimuth Distance (km) Brightness Sun altitude
Exits shadow 23:46:47 58° 59° (ENE) 1,275 3.5 -32.6°
Maximum altitude 23:47:13 59° 42° (NE) 1,262 3.5 -32.7°
Drops below altitude 10° 23:53:38 10° 325° (NW) 2,970 6.3 -33.1°
Sets 23:56:09 0° 322° (NW) 3,930 7.1 -33.2°
